Regional Weather Roundup
Issued by NWS Columbia, SC

Home | Current Version | Previous Version | Text Only | Print | Product List | Glossary On
Versions: 1 2 3 4 5 6 7 8 9 10 11 12 13 14 15 16 17 18 19 20 21 22 23 24 25 26 27 28 29 30 31 32 33 34 35 36 37 38 39 40 41 42 43 44 45 46 47 48 49 50
545
ASUS42 KCAE 310110
RWRCAE
REGIONAL WEATHER ROUNDUP
NATIONAL WEATHER SERVICE COLUMBIA SC
900 PM EDT SAT JUL 30 2016

NOTE: "FAIR" INDICATES FEW OR NO CLOUDS BELOW 12,000 FEET WITH NO
SIGNIFICANT WEATHER AND/OR OBSTRUCTIONS TO VISIBILITY.

NOT ALL STATIONS ARE QUALITY CONTROLLED BY THE NATIONAL
WEATHER SERVICE. USE DATA WITH CAUTION...ESPECIALLY
DEWPOINT OBSERVATIONS.

SCZ001>056-GAZ040-063>065-077-310200-
...UPSTATE SOUTH CAROLINA...

CITY           SKY/WX    TMP DP  RH WIND       PRES   REMARKS
ANDERSON       PTCLDY    81  70  69 CALM      30.00R
LIBERTY        PTCLDY    78  72  80 CALM      30.00S
SPARTANBURG    CLOUDY    73  70  88 NW3       29.99F
CLEMSON        PTCLDY    84  70  62 NW5       30.01S
GREENVILLE     PTCLDY    79  69  71 NE6       30.02R
GREENWOOD      MOCLDY    80  72  76 CALM      30.00S
GREER          PTCLDY    74  72  93 CALM      30.00S
ROCK HILL      CLOUDY    82  70  66 W5        29.98F
CHESTER        CLOUDY    79  68  69 W3        29.99S
LAURENS        CLOUDY    77  73  88 SE3       29.99F


...CENTRAL SOUTH CAROLINA...

CITY           SKY/WX    TMP DP  RH WIND       PRES   REMARKS
COLUMBIA APT   MOCLDY    89  69  51 W10       29.95F
COLUMBIA OWENS PTCLDY    89  68  49 SW3       29.96F
MCENTIRE ANGB  CLEAR     85  70  60 SW1       29.96S
ORANGEBURG     CLEAR     85  72  65 CALM      29.98R
SUMTER SHAW    CLEAR     85  71  63 SW6       29.95R
NEWBERRY       CLOUDY    81  73  78 SW3       30.00F
AIKEN          FAIR      79  66  65 SW3       30.03R
MANNING        FAIR      86  73  66 S3        29.97R
LANCASTER      PTCLDY    81  75  83 CALM      29.97S
WINNSBORO      MOCLDY    81  72  74 NW5       29.97


...EASTERN AND COASTAL SOUTH CAROLINA...

CITY           SKY/WX    TMP DP  RH WIND       PRES   REMARKS
MYRTLE BEACH   PTCLDY    86  72  62 SW14      29.99R
N MYRTLE BCH   CLEAR     86  77  74 SW17      29.96R HX  97
CONWAY         FAIR      82  73  74 CALM      29.97R
MARION         TSTM      73  72  94 NE5       29.99R
HARTSVILLE     FAIR      77  73  88 E3        29.97R
FLORENCE       CLOUDY    78  74  87 CALM      29.97S
DARLINGTON     CLOUDY    79  75  87 CALM      29.98R
CHARLESTON APT PTCLDY    87  74  64 SW14      29.99R HX  95
MOUNT PLEASANT FAIR      86  77  74 SW8       30.00R HX  97
WALTERBORO     CLOUDY    82  72  69 SW14      30.01R THUNDER
BEAUFORT       CLOUDY    87  73  62 NW13G23   30.02R THUNDER


...EASTERN GEORGIA...

CITY           SKY/WX    TMP DP  RH WIND       PRES   REMARKS
AUGUSTA BUSH F CLOUDY    74  73  97 E3        29.97S
AUGUSTA DANIEL CLOUDY    80  72  76 N3        29.99R
WASHINGTON     FAIR      81  75  83 SW3       30.00R
CLAXTON        CLOUDY    85  76  73 E3        29.99R
STATESBORO     CLOUDY    82  78  89 SE3       30.00R
SAVANNAH       MOCLDY    87  74  64 S10       30.00R THUNDER HX  95


...SOUTHERN NORTH CAROLINA...

CITY           SKY/WX    TMP DP  RH WIND       PRES   REMARKS
CHARLOTTE      CLOUDY    82  71  69 W5        29.98S
MONROE         CLOUDY    82  71  69 S5        29.97S
WADESBORO      PTCLDY    80  71  73 CALM      29.96S
ROCKINGHAM     MOCLDY    77  75  94 SE3       29.97S
RUTHERFORDTON    N/A     73  73 100 CALM      30.02S
ASHEVILLE      CLEAR     73  68  84 CALM      30.08S

$$




USA.gov is the U.S. government's official web portal to all federal, state and local government web resources and services.